This demonstration page uses our WeatherBlox Daily Observations layout. Learn more.

Hourly Observations for June 13, 2017

Temp ( °F °C ) Dew Point ( °F °C ) Humidity (%) Winds ( mph kmh ) Pressure ( in mb ) Visibility ( mi km ) Precip ( " mm )
12:54 am 00:54 Clear 79 26.1 69 20.6 72 72 S 16 26 29.75 1007 10 16.0934 0 0
1:54 am 01:54 Clear 78 25.6 68 20 71 71 S 17 28 29.74 1007 10 16.0934 0 0
2:54 am 02:54 Clear 77 25 68 20 74 74 S 15 24 29.74 1007 10 16.0934 0 0
3:54 am 03:54 Clear 75 23.9 68 20 79 79 SSE 13 20 29.73 1007 10 16.0934 0 0
4:54 am 04:54 Clear 74 23.3 67 19.4 79 79 SSE 13 20 29.72 1006 10 16.0934 0 0
5:54 am 05:54 Clear 73 22.8 67 19.4 81 81 SSE 13 20 29.71 1006 10 16.0934 0 0
6:54 am 06:54 Sunny 74 23.3 68 20 82 82 SSE 16 26 29.7 1006 9 14.48406 0 0
7:54 am 07:54 Sunny 77 25 69 20.6 77 77 S 20 31 29.7 1006 9 14.48406 0 0
8:54 am 08:54 Sunny 80 26.7 69 20.6 69 69 S 17 28 29.69 1005 10 16.0934 0 0
9:54 am 09:54 Sunny 83 28.3 69 20.6 63 63 S 20 31 29.67 1005 10 16.0934 0 0
10:54 am 10:54 Sunny 85 29.4 70 21.1 61 61 S 18 30 29.67 1005 10 16.0934 0 0
11:54 am 11:54 Sunny 87 30.6 70 21.1 57 57 S 21 33 29.66 1004 10 16.0934 0 0
12:54 pm 12:54 Mostly Sunny 89 31.7 70 21.1 53 53 SSE 26 43 29.64 1004 10 16.0934 0 0
1:54 pm 13:54 Sunny 90 32.2 71 21.7 54 54 S 28 44 29.62 1003 10 16.0934 0 0
2:54 pm 14:54 Partly Cloudy 91 32.8 71 21.7 52 52 S 25 41 29.6 1002 10 16.0934 0 0
3:54 pm 15:54 Partly Cloudy 92 33.3 71 21.7 51 51 S 29 46 29.59 1002 10 16.0934 0 0
4:54 pm 16:54 Mostly Sunny 92 33.3 72 22.2 52 52 SSE 30 48 29.57 1001 10 16.0934 0 0
5:54 pm 17:54 Sunny 92 33.3 71 21.7 51 51 S 25 41 29.56 1001 10 16.0934 0 0
6:54 pm 18:54 Sunny 90 32.2 71 21.7 54 54 SSE 29 46 29.55 1001 10 16.0934 0 0
7:54 pm 19:54 Sunny 87 30.6 70 21.1 57 57 SSE 26 43 29.56 1001 10 16.0934 0 0
8:54 pm 20:54 Sunny 86 30 69 20.6 57 57 SSE 25 41 29.56 1001 10 16.0934 0 0
9:54 pm 21:54 Clear 84 28.9 69 20.6 61 61 SSW 14 22 29.62 1003 10 16.0934 0 0
10:05 pm 22:05 Partly Cloudy 85 29.4 69 20.6 59 59 W 10 17 29.62 1003 10 16.0934 0 0
10:54 pm 22:54 Cloudy 78 25.6 63 17.2 60 60 NNE 7 11 29.67 1005 10 16.0934 0 0
11:13 pm 23:13 Mostly Cloudy with Nearby Thunderstorms 82 27.8 68 20 63 63 S 13 20 29.62 1003 10 16.0934 0 0
11:24 pm 23:24 Mostly Cloudy with Thunderstorms 77 25 62 16.7 60 60 WNW 18 30 29.68 1005 10 16.0934 0 0
11:54 pm 23:54 Partly Cloudy with Nearby Thunderstorms 71 21.7 62 16.7 73 73 W 18 30 29.76 1008 10 16.0934 0 0

Powered by AerisWeather